Year,Month,Day,Hour,Minute,Value (Times are PST for temperature in C)
2008,08,16,00,00,20.20
2008,08,16,00,01,20.20
2008,08,16,00,02,20.30
2008,08,16,00,03,20.30
2008,08,16,00,04,20.30
2008,08,16,00,05,20.30
2008,08,16,00,06,20.30
2008,08,16,00,07,20.30
2008,08,16,00,08,20.30
2008,08,16,00,09,20.30
2008,08,16,00,10,20.30
2008,08,16,00,11,20.30
2008,08,16,00,12,20.30
2008,08,16,00,13,20.30
2008,08,16,00,14,20.30
2008,08,16,00,15,20.30
2008,08,16,00,16,20.30
2008,08,16,00,17,20.30
2008,08,16,00,18,20.30
2008,08,16,00,19,20.30
2008,08,16,00,20,20.30
2008,08,16,00,21,20.30
2008,08,16,00,22,20.30
2008,08,16,00,23,20.30
2008,08,16,00,24,20.30
2008,08,16,00,25,20.30
2008,08,16,00,26,20.30
2008,08,16,00,27,20.20
2008,08,16,00,28,20.20
2008,08,16,00,29,20.20
2008,08,16,00,30,20.20
2008,08,16,00,31,20.20
2008,08,16,00,32,20.20
2008,08,16,00,33,20.20
2008,08,16,00,34,20.20
2008,08,16,00,35,20.20
2008,08,16,00,36,20.20
2008,08,16,00,37,20.20
2008,08,16,00,38,20.20
2008,08,16,00,39,20.20
2008,08,16,00,40,20.10
2008,08,16,00,41,20.10
2008,08,16,00,42,20.00
2008,08,16,00,43,19.90
2008,08,16,00,44,19.90
2008,08,16,00,45,19.90
2008,08,16,00,46,19.90
2008,08,16,00,47,19.90
2008,08,16,00,48,19.90
2008,08,16,00,49,19.90
2008,08,16,00,50,19.90
2008,08,16,00,51,19.90
2008,08,16,00,52,19.90
2008,08,16,00,53,19.90
2008,08,16,00,54,19.90
2008,08,16,00,55,19.90
2008,08,16,00,56,19.90
2008,08,16,00,57,19.90
2008,08,16,00,58,19.90
2008,08,16,00,59,19.90
2008,08,16,01,00,19.90
2008,08,16,01,01,19.90
2008,08,16,01,02,19.90
2008,08,16,01,03,19.80
2008,08,16,01,04,19.80
2008,08,16,01,05,19.80
2008,08,16,01,06,19.80
2008,08,16,01,07,19.90
2008,08,16,01,08,19.90
2008,08,16,01,09,19.90
2008,08,16,01,10,19.90
2008,08,16,01,11,19.90
2008,08,16,01,12,19.90
2008,08,16,01,13,19.90
2008,08,16,01,14,19.90
2008,08,16,01,15,19.90
2008,08,16,01,16,19.90
2008,08,16,01,17,19.90
2008,08,16,01,18,19.80
2008,08,16,01,19,19.80
2008,08,16,01,20,19.90
2008,08,16,01,21,19.90
2008,08,16,01,22,19.90
2008,08,16,01,23,19.90
2008,08,16,01,24,19.90
2008,08,16,01,25,19.90
2008,08,16,01,26,19.90
2008,08,16,01,27,19.90
2008,08,16,01,28,20.00
2008,08,16,01,29,20.10
2008,08,16,01,30,20.00
2008,08,16,01,31,19.90
2008,08,16,01,32,19.90
2008,08,16,01,33,20.00
2008,08,16,01,34,20.00
2008,08,16,01,35,19.90
2008,08,16,01,36,19.90
2008,08,16,01,37,19.90
2008,08,16,01,38,19.90
2008,08,16,01,39,19.90
2008,08,16,01,40,19.90
2008,08,16,01,41,19.90
2008,08,16,01,42,19.90
2008,08,16,01,43,19.90
2008,08,16,01,44,19.90
2008,08,16,01,45,20.00
2008,08,16,01,46,20.10
2008,08,16,01,47,20.10
2008,08,16,01,48,20.10
2008,08,16,01,49,20.10
2008,08,16,01,50,20.10
2008,08,16,01,51,20.10
2008,08,16,01,52,20.00
2008,08,16,01,53,19.90
2008,08,16,01,54,19.90
2008,08,16,01,55,19.90
2008,08,16,01,56,19.90
2008,08,16,01,57,19.90
2008,08,16,01,58,19.90
2008,08,16,01,59,19.90
2008,08,16,02,00,19.90
2008,08,16,02,01,19.90
2008,08,16,02,02,20.00
2008,08,16,02,03,20.10
2008,08,16,02,04,20.20
2008,08,16,02,05,20.20
2008,08,16,02,06,20.20
2008,08,16,02,07,20.20
2008,08,16,02,08,20.20
2008,08,16,02,09,20.10
2008,08,16,02,10,20.10
2008,08,16,02,11,20.10
2008,08,16,02,12,20.10
2008,08,16,02,13,20.10
2008,08,16,02,14,19.90
2008,08,16,02,15,19.90
2008,08,16,02,16,19.90
2008,08,16,02,17,19.90
2008,08,16,02,18,19.90
2008,08,16,02,19,19.90
2008,08,16,02,20,19.90
2008,08,16,02,21,19.90
2008,08,16,02,22,19.90
2008,08,16,02,23,19.80
2008,08,16,02,24,19.80
2008,08,16,02,25,19.80
2008,08,16,02,26,19.80
2008,08,16,02,27,19.80
2008,08,16,02,28,19.80
2008,08,16,02,29,19.80
2008,08,16,02,30,19.80
2008,08,16,02,31,19.80
2008,08,16,02,32,19.80
2008,08,16,02,33,19.80
2008,08,16,02,34,19.80
2008,08,16,02,35,19.80
2008,08,16,02,36,19.80
2008,08,16,02,37,19.80
2008,08,16,02,38,19.80
2008,08,16,02,39,19.80
2008,08,16,02,40,19.70
2008,08,16,02,41,19.70
2008,08,16,02,42,19.70
2008,08,16,02,43,19.70
2008,08,16,02,44,19.70
2008,08,16,02,45,19.70
2008,08,16,02,46,19.70
2008,08,16,02,47,19.70
2008,08,16,02,48,19.70
2008,08,16,02,49,19.70
2008,08,16,02,50,19.70
2008,08,16,02,51,19.60
2008,08,16,02,52,19.60
2008,08,16,02,53,19.60
2008,08,16,02,54,19.60
2008,08,16,02,55,19.60
2008,08,16,02,56,19.50
2008,08,16,02,57,19.50
2008,08,16,02,58,19.50
2008,08,16,02,59,19.50
2008,08,16,03,00,19.50
2008,08,16,03,01,19.40
2008,08,16,03,02,19.40
2008,08,16,03,03,19.40
2008,08,16,03,04,19.40
2008,08,16,03,05,19.40
2008,08,16,03,06,19.40
2008,08,16,03,07,19.40
2008,08,16,03,08,19.50
2008,08,16,03,09,19.50
2008,08,16,03,10,19.40
2008,08,16,03,11,19.40
2008,08,16,03,12,19.40
2008,08,16,03,13,19.50
2008,08,16,03,14,19.50
2008,08,16,03,15,19.50
2008,08,16,03,16,19.50
2008,08,16,03,17,19.50
2008,08,16,03,18,19.50
2008,08,16,03,19,19.50
2008,08,16,03,20,19.50
2008,08,16,03,21,19.50
2008,08,16,03,22,19.50
2008,08,16,03,23,19.60
2008,08,16,03,24,19.60
2008,08,16,03,25,19.60
2008,08,16,03,26,19.60
2008,08,16,03,27,19.70
2008,08,16,03,28,19.70
2008,08,16,03,29,19.70
2008,08,16,03,30,19.80
2008,08,16,03,31,19.80
2008,08,16,03,32,19.80
2008,08,16,03,33,19.80
2008,08,16,03,34,19.80
2008,08,16,03,35,19.80
2008,08,16,03,36,19.80
2008,08,16,03,37,19.80
2008,08,16,03,38,19.80
2008,08,16,03,39,19.80
2008,08,16,03,40,19.80
2008,08,16,03,41,19.80
2008,08,16,03,42,19.80
2008,08,16,03,43,19.80
2008,08,16,03,44,19.80
2008,08,16,03,45,19.80
2008,08,16,03,46,19.80
2008,08,16,03,47,19.80
2008,08,16,03,48,19.80
2008,08,16,03,49,19.80
2008,08,16,03,50,19.80
2008,08,16,03,51,19.80
2008,08,16,03,52,19.80
2008,08,16,03,53,19.80
2008,08,16,03,54,19.80
2008,08,16,03,55,19.80
2008,08,16,03,56,19.80
2008,08,16,03,57,19.80
2008,08,16,03,58,19.80
2008,08,16,03,59,19.80
2008,08,16,04,00,19.80
2008,08,16,04,01,19.80
2008,08,16,04,02,19.90
2008,08,16,04,03,19.90
2008,08,16,04,04,19.90
2008,08,16,04,05,19.90
2008,08,16,04,06,19.90
2008,08,16,04,07,19.90
2008,08,16,04,08,19.90
2008,08,16,04,09,19.90
2008,08,16,04,10,19.80
2008,08,16,04,11,19.80
2008,08,16,04,12,19.80
2008,08,16,04,13,19.80
2008,08,16,04,14,19.70
2008,08,16,04,15,19.70
2008,08,16,04,16,19.60
2008,08,16,04,17,19.60
2008,08,16,04,18,19.50
2008,08,16,04,19,19.40
2008,08,16,04,20,19.30
2008,08,16,04,21,19.30
2008,08,16,04,22,19.20
2008,08,16,04,23,19.20
2008,08,16,04,24,19.20
2008,08,16,04,25,19.10
2008,08,16,04,26,19.10
2008,08,16,04,27,19.10
2008,08,16,04,28,19.00
2008,08,16,04,29,18.90
2008,08,16,04,30,18.90
2008,08,16,04,31,18.90
2008,08,16,04,32,18.90
2008,08,16,04,33,18.90
2008,08,16,04,34,18.80
2008,08,16,04,35,18.80
2008,08,16,04,36,18.80
2008,08,16,04,37,18.80
2008,08,16,04,38,18.80
2008,08,16,04,39,18.80
2008,08,16,04,40,18.80
2008,08,16,04,41,18.80
2008,08,16,04,42,18.80
2008,08,16,04,43,18.80
2008,08,16,04,44,18.80
2008,08,16,04,45,18.80
2008,08,16,04,46,18.80
2008,08,16,04,47,18.80
2008,08,16,04,48,18.80
2008,08,16,04,49,18.80
2008,08,16,04,50,18.80
2008,08,16,04,51,18.80
2008,08,16,04,52,18.80
2008,08,16,04,53,18.70
2008,08,16,04,54,18.70
2008,08,16,04,55,18.70
2008,08,16,04,56,18.60
2008,08,16,04,57,18.60
2008,08,16,04,58,18.60
2008,08,16,04,59,18.60
2008,08,16,05,00,18.60
2008,08,16,05,01,18.50
2008,08,16,05,02,18.50
2008,08,16,05,03,18.50
2008,08,16,05,04,18.50
2008,08,16,05,05,18.50
2008,08,16,05,06,18.50
2008,08,16,05,07,18.50
2008,08,16,05,08,18.50
2008,08,16,05,09,18.40
2008,08,16,05,10,18.40
2008,08,16,05,11,18.40
2008,08,16,05,12,18.30
2008,08,16,05,13,18.30
2008,08,16,05,14,18.30
2008,08,16,05,15,18.30
2008,08,16,05,16,18.30
2008,08,16,05,17,18.30
2008,08,16,05,18,18.20
2008,08,16,05,19,18.20
2008,08,16,05,20,18.20
2008,08,16,05,21,18.30
2008,08,16,05,22,18.30
2008,08,16,05,23,18.30
2008,08,16,05,24,18.30
2008,08,16,05,25,18.40
2008,08,16,05,26,18.40
2008,08,16,05,27,18.50
2008,08,16,05,28,18.50
2008,08,16,05,29,18.60
2008,08,16,05,30,18.60
2008,08,16,05,31,18.70
2008,08,16,05,32,18.70
2008,08,16,05,33,18.70
2008,08,16,05,34,18.80
2008,08,16,05,35,18.80
2008,08,16,05,36,18.90
2008,08,16,05,37,18.90
2008,08,16,05,38,18.90
2008,08,16,05,39,18.90
2008,08,16,05,40,18.90
2008,08,16,05,41,18.90
2008,08,16,05,42,18.90
2008,08,16,05,43,18.90
2008,08,16,05,44,18.90
2008,08,16,05,45,18.90
2008,08,16,05,46,18.90
2008,08,16,05,47,18.90
2008,08,16,05,48,18.90
2008,08,16,05,49,18.90
2008,08,16,05,50,18.90
2008,08,16,05,51,18.90
2008,08,16,05,52,18.90
2008,08,16,05,53,18.90
2008,08,16,05,54,18.90
2008,08,16,05,55,18.90
2008,08,16,05,56,18.90
2008,08,16,05,57,18.90
2008,08,16,05,58,18.90
2008,08,16,05,59,18.80
2008,08,16,06,00,18.80
2008,08,16,06,01,18.70
2008,08,16,06,02,18.70
2008,08,16,06,03,18.60
2008,08,16,06,04,18.60
2008,08,16,06,05,18.60
2008,08,16,06,06,18.50
2008,08,16,06,07,18.40
2008,08,16,06,08,18.40
2008,08,16,06,09,18.30
2008,08,16,06,10,18.20
2008,08,16,06,11,18.20
2008,08,16,06,12,18.20
2008,08,16,06,13,18.20
2008,08,16,06,14,18.20
2008,08,16,06,15,18.20
2008,08,16,06,16,18.10
2008,08,16,06,17,18.10
2008,08,16,06,18,18.10
2008,08,16,06,19,18.10
2008,08,16,06,20,17.90
2008,08,16,06,21,17.90
2008,08,16,06,22,17.90
2008,08,16,06,23,17.90
2008,08,16,06,24,17.90
2008,08,16,06,25,17.90
2008,08,16,06,26,17.90
2008,08,16,06,27,17.90
2008,08,16,06,28,17.90
2008,08,16,06,29,17.90
2008,08,16,06,30,17.90
2008,08,16,06,31,17.90
2008,08,16,06,32,17.90
2008,08,16,06,33,17.90
2008,08,16,06,34,17.90
2008,08,16,06,35,17.90
2008,08,16,06,36,17.90
2008,08,16,06,37,17.90
2008,08,16,06,38,17.90
2008,08,16,06,39,17.90
2008,08,16,06,40,17.90
2008,08,16,06,41,17.90
2008,08,16,06,42,17.90
2008,08,16,06,43,17.90
2008,08,16,06,44,17.90
2008,08,16,06,45,17.90
2008,08,16,06,46,17.90
2008,08,16,06,47,17.90
2008,08,16,06,48,17.90
2008,08,16,06,49,17.90
2008,08,16,06,50,17.90
2008,08,16,06,51,18.00
2008,08,16,06,52,18.10
2008,08,16,06,53,18.10
2008,08,16,06,54,18.20
2008,08,16,06,55,18.20
2008,08,16,06,56,18.20
2008,08,16,06,57,18.30
2008,08,16,06,58,18.30
2008,08,16,06,59,18.30
2008,08,16,07,00,18.40
2008,08,16,07,01,18.40
2008,08,16,07,02,18.40
2008,08,16,07,03,18.40
2008,08,16,07,04,18.50
2008,08,16,07,05,18.50
2008,08,16,07,06,18.50
2008,08,16,07,07,18.60
2008,08,16,07,08,18.60
2008,08,16,07,09,18.60
2008,08,16,07,10,18.70
2008,08,16,07,11,18.70
2008,08,16,07,12,18.80
2008,08,16,07,13,18.90
2008,08,16,07,14,19.00
2008,08,16,07,15,19.10
2008,08,16,07,16,19.10
2008,08,16,07,17,19.20
2008,08,16,07,18,19.30
2008,08,16,07,19,19.40
2008,08,16,07,20,19.50
2008,08,16,07,21,19.50
2008,08,16,07,22,19.60
2008,08,16,07,23,19.60
2008,08,16,07,24,19.70
2008,08,16,07,25,19.70
2008,08,16,07,26,19.80
2008,08,16,07,27,19.80
2008,08,16,07,28,19.90
2008,08,16,07,29,19.90
2008,08,16,07,30,19.90
2008,08,16,07,31,19.80
2008,08,16,07,32,19.80
2008,08,16,07,33,19.80
2008,08,16,07,34,19.80
2008,08,16,07,35,19.90
2008,08,16,07,36,19.90
2008,08,16,07,37,19.90
2008,08,16,07,38,19.90
2008,08,16,07,39,19.90
2008,08,16,07,40,19.80
2008,08,16,07,41,19.80
2008,08,16,07,42,19.70
2008,08,16,07,43,19.70
2008,08,16,07,44,19.70
2008,08,16,07,45,19.70
2008,08,16,07,46,19.70
2008,08,16,07,47,19.70
2008,08,16,07,48,19.70
2008,08,16,07,49,19.70
2008,08,16,07,50,19.80
2008,08,16,07,51,19.80
2008,08,16,07,52,19.80
2008,08,16,07,53,19.90
2008,08,16,07,54,19.90
2008,08,16,07,55,19.90
2008,08,16,07,56,19.90
2008,08,16,07,57,19.90
2008,08,16,07,58,20.00
2008,08,16,07,59,20.10
2008,08,16,08,00,20.10
2008,08,16,08,01,20.20
2008,08,16,08,02,20.10
2008,08,16,08,03,20.10
2008,08,16,08,04,19.90
2008,08,16,08,05,19.90
2008,08,16,08,06,20.00
2008,08,16,08,07,20.10
2008,08,16,08,08,20.10
2008,08,16,08,09,20.10
2008,08,16,08,10,20.10
2008,08,16,08,11,20.20
2008,08,16,08,12,20.20
2008,08,16,08,13,20.30
2008,08,16,08,14,20.30
2008,08,16,08,15,20.40
2008,08,16,08,16,20.40
2008,08,16,08,17,20.50
2008,08,16,08,18,20.50
2008,08,16,08,19,20.60
2008,08,16,08,20,20.70
2008,08,16,08,21,20.70
2008,08,16,08,22,20.80
2008,08,16,08,23,20.90
2008,08,16,08,24,20.90
2008,08,16,08,25,20.90
2008,08,16,08,26,20.90
2008,08,16,08,27,21.00
2008,08,16,08,28,21.00
2008,08,16,08,29,20.90
2008,08,16,08,30,20.90
2008,08,16,08,31,20.90
2008,08,16,08,32,21.00
2008,08,16,08,33,21.00
2008,08,16,08,34,20.90
2008,08,16,08,35,20.90
2008,08,16,08,36,20.90
2008,08,16,08,37,20.90
2008,08,16,08,38,21.00
2008,08,16,08,39,21.00
2008,08,16,08,40,21.00
2008,08,16,08,41,21.00
2008,08,16,08,42,21.00
2008,08,16,08,43,21.10
2008,08,16,08,44,21.20
2008,08,16,08,45,21.20
2008,08,16,08,46,21.30
2008,08,16,08,47,21.30
2008,08,16,08,48,21.30
2008,08,16,08,49,21.30
2008,08,16,08,50,21.30
2008,08,16,08,51,21.30
2008,08,16,08,52,21.40
2008,08,16,08,53,21.40
2008,08,16,08,54,21.40
2008,08,16,08,55,21.40
2008,08,16,08,56,21.30
2008,08,16,08,57,21.30
2008,08,16,08,58,21.40
2008,08,16,08,59,21.50
2008,08,16,09,00,21.60
2008,08,16,09,01,21.60
2008,08,16,09,02,21.60
2008,08,16,09,03,21.60
2008,08,16,09,04,21.60
2008,08,16,09,05,21.60
2008,08,16,09,06,21.60
2008,08,16,09,07,21.60
2008,08,16,09,08,21.70
2008,08,16,09,09,21.80
2008,08,16,09,10,21.80
2008,08,16,09,11,21.80
2008,08,16,09,12,21.70
2008,08,16,09,13,21.70
2008,08,16,09,14,21.70
2008,08,16,09,15,21.70
2008,08,16,09,16,21.70
2008,08,16,09,17,21.70
2008,08,16,09,18,21.70
2008,08,16,09,19,21.70
2008,08,16,09,20,21.70
2008,08,16,09,21,21.60
2008,08,16,09,22,21.60
2008,08,16,09,23,21.60
2008,08,16,09,24,21.60
2008,08,16,09,25,21.70
2008,08,16,09,26,21.60
2008,08,16,09,27,21.70
2008,08,16,09,28,21.70
2008,08,16,09,29,21.70
2008,08,16,09,30,21.80
2008,08,16,09,31,21.80
2008,08,16,09,32,21.90
2008,08,16,09,33,22.00
2008,08,16,09,34,22.10
2008,08,16,09,35,22.20
2008,08,16,09,36,22.20
2008,08,16,09,37,22.20
2008,08,16,09,38,22.20
2008,08,16,09,39,22.20
2008,08,16,09,40,22.20
2008,08,16,09,41,22.20
2008,08,16,09,42,22.10
2008,08,16,09,43,22.20
2008,08,16,09,44,22.30
2008,08,16,09,45,22.30
2008,08,16,09,46,22.40
2008,08,16,09,47,22.40
2008,08,16,09,48,22.50
2008,08,16,09,49,22.50
2008,08,16,09,50,22.50
2008,08,16,09,51,22.60
2008,08,16,09,52,22.60
2008,08,16,09,53,22.60
2008,08,16,09,54,22.60
2008,08,16,09,55,22.70
2008,08,16,09,56,22.80
2008,08,16,09,57,22.80
2008,08,16,09,58,22.80
2008,08,16,09,59,22.90
2008,08,16,10,00,23.00
2008,08,16,10,01,23.10
2008,08,16,10,02,23.00
2008,08,16,10,03,22.90
2008,08,16,10,04,23.00
2008,08,16,10,05,23.10
2008,08,16,10,06,22.90
2008,08,16,10,07,22.90
2008,08,16,10,08,22.80
2008,08,16,10,09,22.70
2008,08,16,10,10,22.80
2008,08,16,10,11,22.80
2008,08,16,10,12,22.90
2008,08,16,10,13,22.90
2008,08,16,10,14,22.90
2008,08,16,10,15,22.90
2008,08,16,10,16,22.90
2008,08,16,10,17,22.90
2008,08,16,10,18,23.00
2008,08,16,10,19,23.10
2008,08,16,10,20,23.10
2008,08,16,10,21,23.20
2008,08,16,10,22,23.20
2008,08,16,10,23,23.00
2008,08,16,10,24,22.90
2008,08,16,10,25,22.90
2008,08,16,10,26,22.80
2008,08,16,10,27,22.80
2008,08,16,10,28,22.80
2008,08,16,10,29,22.90
2008,08,16,10,30,22.90
2008,08,16,10,31,22.90
2008,08,16,10,32,22.90
2008,08,16,10,33,22.90
2008,08,16,10,34,22.90
2008,08,16,10,35,23.10
2008,08,16,10,36,23.10
2008,08,16,10,37,23.10
2008,08,16,10,38,23.10
2008,08,16,10,39,23.20
2008,08,16,10,40,23.20
2008,08,16,10,41,23.30
2008,08,16,10,42,23.30
2008,08,16,10,43,23.30
2008,08,16,10,44,23.20
2008,08,16,10,45,23.30
2008,08,16,10,46,23.30
2008,08,16,10,47,23.20
2008,08,16,10,48,23.20
2008,08,16,10,49,23.20
2008,08,16,10,50,23.20
2008,08,16,10,51,23.10
2008,08,16,10,52,23.00
2008,08,16,10,53,22.90
2008,08,16,10,54,22.90
2008,08,16,10,55,22.90
2008,08,16,10,56,22.90
2008,08,16,10,57,23.00
2008,08,16,10,58,23.20
2008,08,16,10,59,23.20
2008,08,16,11,00,23.20
2008,08,16,11,01,23.20
2008,08,16,11,02,23.20
2008,08,16,11,03,23.20
2008,08,16,11,04,23.30
2008,08,16,11,05,23.30
2008,08,16,11,06,23.30
2008,08,16,11,07,23.30
2008,08,16,11,08,23.30
2008,08,16,11,09,23.30
2008,08,16,11,10,23.30
2008,08,16,11,11,23.30
2008,08,16,11,12,23.30
2008,08,16,11,13,23.30
2008,08,16,11,14,23.30
2008,08,16,11,15,23.30
2008,08,16,11,16,23.30
2008,08,16,11,17,23.30
2008,08,16,11,18,23.30
2008,08,16,11,19,23.30
2008,08,16,11,20,23.40
2008,08,16,11,21,23.40
2008,08,16,11,22,23.50
2008,08,16,11,23,23.60
2008,08,16,11,24,23.60
2008,08,16,11,25,23.70
2008,08,16,11,26,23.70
2008,08,16,11,27,23.70
2008,08,16,11,28,23.70
2008,08,16,11,29,23.70
2008,08,16,11,30,23.70
2008,08,16,11,31,23.70
2008,08,16,11,32,23.60
2008,08,16,11,33,23.70
2008,08,16,11,34,23.60
2008,08,16,11,35,23.50
2008,08,16,11,36,23.40
2008,08,16,11,37,23.50
2008,08,16,11,38,23.60
2008,08,16,11,39,23.70
2008,08,16,11,40,23.70
2008,08,16,11,41,23.80
2008,08,16,11,42,23.90
2008,08,16,11,43,24.00
2008,08,16,11,44,24.10
2008,08,16,11,45,24.10
2008,08,16,11,46,24.00
2008,08,16,11,47,23.90
2008,08,16,11,48,24.00
2008,08,16,11,49,23.90
2008,08,16,11,50,23.80
2008,08,16,11,51,23.80
2008,08,16,11,52,23.70
2008,08,16,11,53,23.70
2008,08,16,11,54,23.70
2008,08,16,11,55,23.60
2008,08,16,11,56,23.60
2008,08,16,11,57,23.70
2008,08,16,11,58,23.70
2008,08,16,11,59,23.70
2008,08,16,12,00,23.80
2008,08,16,12,01,23.70
2008,08,16,12,02,23.70
2008,08,16,12,03,23.70
2008,08,16,12,04,23.70
2008,08,16,12,05,23.90
2008,08,16,12,06,24.10
2008,08,16,12,07,24.10
2008,08,16,12,08,24.10
2008,08,16,12,09,24.10
2008,08,16,12,10,24.10
2008,08,16,12,11,24.00
2008,08,16,12,12,23.90
2008,08,16,12,13,23.90
2008,08,16,12,14,23.90
2008,08,16,12,15,23.90
2008,08,16,12,16,23.90
2008,08,16,12,17,23.80
2008,08,16,12,18,23.70
2008,08,16,12,19,23.60
2008,08,16,12,20,23.60
2008,08,16,12,21,23.50
2008,08,16,12,22,23.40
2008,08,16,12,23,23.40
2008,08,16,12,24,23.40
2008,08,16,12,25,23.50
2008,08,16,12,26,23.60
2008,08,16,12,27,23.70
2008,08,16,12,28,23.80
2008,08,16,12,29,23.80
2008,08,16,12,30,23.80
2008,08,16,12,31,23.80
2008,08,16,12,32,23.90
2008,08,16,12,33,23.90
2008,08,16,12,34,24.10
2008,08,16,12,35,24.10
2008,08,16,12,36,24.10
2008,08,16,12,37,24.10
2008,08,16,12,38,24.10
2008,08,16,12,39,24.10
2008,08,16,12,40,24.10
2008,08,16,12,41,23.90
2008,08,16,12,42,23.80
2008,08,16,12,43,23.90
2008,08,16,12,44,23.90
2008,08,16,12,45,23.90
2008,08,16,12,46,23.90
2008,08,16,12,47,24.00
2008,08,16,12,48,24.10
2008,08,16,12,49,24.10
2008,08,16,12,50,24.10
2008,08,16,12,51,24.10
2008,08,16,12,52,24.20
2008,08,16,12,53,24.20
2008,08,16,12,54,24.20
2008,08,16,12,55,24.10
2008,08,16,12,56,24.20
2008,08,16,12,57,24.30
2008,08,16,12,58,24.50
2008,08,16,12,59,24.50
2008,08,16,13,00,24.50
2008,08,16,13,01,24.50
2008,08,16,13,02,24.60
2008,08,16,13,03,24.60
2008,08,16,13,04,24.60
2008,08,16,13,05,24.40
2008,08,16,13,06,24.30
2008,08,16,13,07,24.20
2008,08,16,13,08,24.20
2008,08,16,13,09,24.20
2008,08,16,13,10,24.20
2008,08,16,13,11,24.30
2008,08,16,13,12,24.30
2008,08,16,13,13,24.30
2008,08,16,13,14,24.40
2008,08,16,13,15,24.50
2008,08,16,13,16,24.60
2008,08,16,13,17,24.60
2008,08,16,13,18,24.70
2008,08,16,13,19,24.80
2008,08,16,13,20,24.80
2008,08,16,13,21,24.80
2008,08,16,13,22,24.80
2008,08,16,13,23,24.80
2008,08,16,13,24,24.80
2008,08,16,13,25,24.80
2008,08,16,13,26,24.80
2008,08,16,13,27,24.70
2008,08,16,13,28,24.70
2008,08,16,13,29,24.70
2008,08,16,13,30,24.80
2008,08,16,13,31,24.90
2008,08,16,13,32,24.90
2008,08,16,13,33,25.00
2008,08,16,13,34,25.10
2008,08,16,13,35,25.10
2008,08,16,13,36,25.00
2008,08,16,13,37,25.00
2008,08,16,13,38,25.10
2008,08,16,13,39,25.20
2008,08,16,13,40,25.20
2008,08,16,13,41,25.10
2008,08,16,13,42,25.20
2008,08,16,13,43,25.20
2008,08,16,13,44,25.30
2008,08,16,13,45,25.30
2008,08,16,13,46,25.30
2008,08,16,13,47,25.40
2008,08,16,13,48,25.40
2008,08,16,13,49,25.50
2008,08,16,13,50,25.50
2008,08,16,13,51,25.50
2008,08,16,13,52,25.40
2008,08,16,13,53,25.40
2008,08,16,13,54,25.40
2008,08,16,13,55,25.50
2008,08,16,13,56,25.50
2008,08,16,13,57,25.40
2008,08,16,13,58,25.50
2008,08,16,13,59,25.50
2008,08,16,14,00,25.60
2008,08,16,14,01,25.60
2008,08,16,14,02,25.60
2008,08,16,14,03,25.60
2008,08,16,14,04,25.50
2008,08,16,14,05,25.50
2008,08,16,14,06,25.50
2008,08,16,14,07,25.50
2008,08,16,14,08,25.60
2008,08,16,14,09,25.70
2008,08,16,14,10,25.80
2008,08,16,14,11,25.80
2008,08,16,14,12,25.90
2008,08,16,14,13,26.00
2008,08,16,14,14,26.00
2008,08,16,14,15,26.10
2008,08,16,14,16,26.10
2008,08,16,14,17,26.20
2008,08,16,14,18,26.30
2008,08,16,14,19,26.40
2008,08,16,14,20,26.40
2008,08,16,14,21,26.40
2008,08,16,14,22,26.40
2008,08,16,14,23,26.50
2008,08,16,14,24,26.60
2008,08,16,14,25,26.60
2008,08,16,14,26,26.60
2008,08,16,14,27,26.70
2008,08,16,14,28,26.70
2008,08,16,14,29,26.80
2008,08,16,14,30,26.80
2008,08,16,14,31,26.70
2008,08,16,14,32,26.60
2008,08,16,14,33,26.70
2008,08,16,14,34,26.70
2008,08,16,14,35,26.60
2008,08,16,14,36,26.60
2008,08,16,14,37,26.60
2008,08,16,14,38,26.60
2008,08,16,14,39,26.60
2008,08,16,14,40,26.60
2008,08,16,14,41,26.60
2008,08,16,14,42,26.70
2008,08,16,14,43,26.70
2008,08,16,14,44,26.80
2008,08,16,14,45,26.90
2008,08,16,14,46,26.90
2008,08,16,14,47,26.90
2008,08,16,14,48,26.80
2008,08,16,14,49,26.80
2008,08,16,14,50,26.70
2008,08,16,14,51,26.70
2008,08,16,14,52,26.80
2008,08,16,14,53,26.80
2008,08,16,14,54,26.80
2008,08,16,14,55,26.80
2008,08,16,14,56,26.80
2008,08,16,14,57,26.90
2008,08,16,14,58,26.90
2008,08,16,14,59,27.00
2008,08,16,15,00,27.10
2008,08,16,15,01,27.20
2008,08,16,15,02,27.20
2008,08,16,15,03,27.10
2008,08,16,15,04,27.10
2008,08,16,15,05,27.10
2008,08,16,15,06,27.10
2008,08,16,15,07,27.10
2008,08,16,15,08,27.00
2008,08,16,15,09,27.00
2008,08,16,15,10,27.10
2008,08,16,15,11,27.10
2008,08,16,15,12,27.10
2008,08,16,15,13,27.10
2008,08,16,15,14,27.10
2008,08,16,15,15,27.10
2008,08,16,15,16,27.10
2008,08,16,15,17,27.10
2008,08,16,15,18,27.10
2008,08,16,15,19,27.20
2008,08,16,15,20,27.30
2008,08,16,15,21,27.30
2008,08,16,15,22,27.30
2008,08,16,15,23,27.30
2008,08,16,15,24,27.30
2008,08,16,15,25,27.40
2008,08,16,15,26,27.40
2008,08,16,15,27,27.40
2008,08,16,15,28,27.40
2008,08,16,15,29,27.40
2008,08,16,15,30,27.30
2008,08,16,15,31,27.30
2008,08,16,15,32,27.30
2008,08,16,15,33,27.10
2008,08,16,15,34,27.00
2008,08,16,15,35,26.90
2008,08,16,15,36,26.90
2008,08,16,15,37,27.00
2008,08,16,15,38,27.10
2008,08,16,15,39,27.10
2008,08,16,15,40,27.20
2008,08,16,15,41,27.30
2008,08,16,15,42,27.30
2008,08,16,15,43,27.30
2008,08,16,15,44,27.40
2008,08,16,15,45,27.40
2008,08,16,15,46,27.40
2008,08,16,15,47,27.40
2008,08,16,15,48,27.40
2008,08,16,15,49,27.30
2008,08,16,15,50,27.30
2008,08,16,15,51,27.20
2008,08,16,15,52,27.20
2008,08,16,15,53,27.20
2008,08,16,15,54,27.20
2008,08,16,15,55,27.20
2008,08,16,15,56,27.30
2008,08,16,15,57,27.40
2008,08,16,15,58,27.50
2008,08,16,15,59,27.60
2008,08,16,16,00,27.70
2008,08,16,16,01,27.80
2008,08,16,16,02,27.80
2008,08,16,16,03,27.80
2008,08,16,16,04,27.80
2008,08,16,16,05,27.80
2008,08,16,16,06,27.90
2008,08,16,16,07,27.80
2008,08,16,16,08,27.90
2008,08,16,16,09,27.90
2008,08,16,16,10,28.00
2008,08,16,16,11,28.00
2008,08,16,16,12,28.00
2008,08,16,16,13,28.00
2008,08,16,16,14,28.00
2008,08,16,16,15,28.00
2008,08,16,16,16,28.10
2008,08,16,16,17,28.20
2008,08,16,16,18,28.30
2008,08,16,16,19,28.40
2008,08,16,16,20,28.60
2008,08,16,16,21,28.60
2008,08,16,16,22,28.70
2008,08,16,16,23,28.80
2008,08,16,16,24,28.90
2008,08,16,16,25,28.90
2008,08,16,16,26,29.00
2008,08,16,16,27,29.10
2008,08,16,16,28,29.20
2008,08,16,16,29,29.20
2008,08,16,16,30,29.30
2008,08,16,16,31,29.40
2008,08,16,16,32,29.50
2008,08,16,16,33,29.40
2008,08,16,16,34,29.50
2008,08,16,16,35,29.50
2008,08,16,16,36,29.60
2008,08,16,16,37,29.70
2008,08,16,16,38,29.70
2008,08,16,16,39,29.60
2008,08,16,16,40,29.60
2008,08,16,16,41,29.70
2008,08,16,16,42,29.70
2008,08,16,16,43,29.60
2008,08,16,16,44,29.60
2008,08,16,16,45,29.60
2008,08,16,16,46,29.60
2008,08,16,16,47,29.60
2008,08,16,16,48,29.60
2008,08,16,16,49,29.50
2008,08,16,16,50,29.60
2008,08,16,16,51,29.60
2008,08,16,16,52,29.60
2008,08,16,16,53,29.60
2008,08,16,16,54,29.60
2008,08,16,16,55,29.60
2008,08,16,16,56,29.60
2008,08,16,16,57,29.60
2008,08,16,16,58,29.60
2008,08,16,16,59,29.60
2008,08,16,17,00,29.70
2008,08,16,17,01,29.70
2008,08,16,17,02,29.80
2008,08,16,17,03,29.80
2008,08,16,17,04,29.90
2008,08,16,17,05,30.00
2008,08,16,17,06,30.10
2008,08,16,17,07,30.20
2008,08,16,17,08,30.20
2008,08,16,17,09,30.20
2008,08,16,17,10,30.20
2008,08,16,17,11,30.20
2008,08,16,17,12,30.20
2008,08,16,17,13,30.20
2008,08,16,17,14,30.30
2008,08,16,17,15,30.30
2008,08,16,17,16,30.30
2008,08,16,17,17,30.20
2008,08,16,17,18,30.20
2008,08,16,17,19,30.10